sat.trackr.live / text

‹ back to catalog

STARLINK-5405

NORAD 54863 · 2022-177AV

PAYLOAD ACTIVE UNKNOWN

§ Identity

Operator
Country
US
Launch date
2022-12-28
Launch site
AFETR
Launch vehicle
Mass (kg)
RCS (m²)

Purposes: comms

External: N2YO · Heavens-Above · Gunter

§ Orbital elements

Epoch: 2026-05-25T00:24:35.517600Z

Period
94.27 min
Inclination
43.0027°
Eccentricity
0.0001351
Mean motion
15.27577495 rev/d
Perigee alt
482.1 km
Apogee alt
484.0 km
Semi-major
6,861.2 km
B*
-3.3143e-6
RAAN
50.5411°
Arg perigee
231.6251°
Mean anomaly
128.4479°
Rev number
18,876

§ Raw data

STARLINK-54051 54863U 22177AV  26145.01707775 -.00000353  00000+0 -33143-5 0  99982 54863  43.0027  50.5411 0001351 231.6251 128.4479 15.27577495188767

JSON: /api/v1/satellites/54863 · /tle

For live sub-satellite position, see the globe view (requires WebGL).

§ Visibility from observer

Set your observer location to see the next 7 days of passes ≥ 10°. The values pass through the URL so the page stays shareable.

No JS? Fill the form by hand. The geolocation button needs JavaScript.